Barkol

China     43˚35′47″N   93˚01′12″E
temp.,
°C
wind,
m/s
gust,
m/s
humid.,
%
clouds,
%
prec.,
mm/h
press.,
hPa
HPBL,
m
3 december, thu
thu300:00−17˚sse23510 0.0 104222
03:00−18˚sse33460 0.0 104122
06:00−18˚sse23430 0.0 104121
09:00−15˚sse23640 0.0 104182
12:00−14˚ssw23620 0.0 1039290
15:00−15˚s12710 0.0 103773
18:00−17˚sse23590 0.0 103927
21:00−18˚sse33670 0.0 103932
4 december, fri
fri400:00−17˚sse33620 0.0 103825
03:00−17˚sse22530 0.0 103721
06:00−16˚s12460 0.0 103621
09:00−14˚ssw124926 0.0 103530
12:00−11˚sw244335 0.0 1032376
15:00−13˚w225428 0.0 103146
18:00−14˚wsw228060 0.0 103129
21:00−14˚w239598 0.2 103157
5 december, sat
sat500:00−13˚w259799 0.8 1031144
03:00−13˚w3597100 0.3 1031145
06:00−12˚w2596100 0.9 1031155
09:00−11˚w4797100 0.7 1031302
12:00−10˚wnw6895100 1.1 1030563
15:00−11˚wnw3597100 0.1 1030203
18:00−14˚nnw128582 0.1 103123
21:00−15˚n116759 0.0 103220
6 december, sun
sun600:00−13˚nne115880 0.0 103221
03:00−13˚ene1158100 0.0 103321
06:00−14˚nw0166100 0.0 103420
09:00−12˚sw117785 0.0 103662
12:00−11˚wnw228185 0.0 1035246
15:00−13˚nnw119269 0.0 103527
18:00−15˚s118051 0.0 103720
21:00−15˚s22810 0.0 103820
7 december, mon
mon700:00−15˚ssw11800 0.0 103820
03:00−15˚ssw12790 0.0 103720
06:00−15˚s22750 0.0 103620
09:00−12˚s22690 0.0 103525
12:00−9˚ssw12630 0.0 1032164
15:00−11˚s11720 0.0 103127
18:00−13˚s11540 0.0 103121
21:00−13˚s22590 0.0 103221